TimeCST,TemperatureF,Dew PointF,Humidity,Sea Level PressureIn,VisibilityMPH,Wind Direction,Wind SpeedMPH,Gust SpeedMPH,PrecipitationIn,Events,Conditions,WindDirDegrees,DateUTC
12:54 AM,26.1,19.0,75,30.09,10.0,WSW,5.8,-,N/A,,Clear,250,2012-12-11 06:54:00
1:54 AM,25.0,19.0,78,30.10,10.0,West,6.9,-,N/A,,Clear,270,2012-12-11 07:54:00
2:54 AM,21.9,18.0,85,30.10,10.0,Calm,Calm,-,N/A,,Clear,0,2012-12-11 08:54:00
3:54 AM,21.0,19.0,92,30.10,10.0,South,3.5,-,N/A,,Clear,180,2012-12-11 09:54:00
4:54 AM,21.0,17.1,85,30.10,10.0,SSW,3.5,-,N/A,,Clear,210,2012-12-11 10:54:00
5:54 AM,23.0,18.0,81,30.11,10.0,SW,8.1,-,N/A,,Clear,230,2012-12-11 11:54:00
6:54 AM,19.9,17.1,89,30.11,10.0,SSW,6.9,-,N/A,,Clear,210,2012-12-11 12:54:00
7:54 AM,23.0,19.0,85,30.12,10.0,SSW,9.2,-,N/A,,Clear,210,2012-12-11 13:54:00
8:54 AM,27.0,21.9,81,30.13,10.0,South,11.5,-,N/A,,Clear,190,2012-12-11 14:54:00
9:54 AM,28.9,21.9,75,30.15,10.0,SSW,9.2,-,N/A,,Clear,200,2012-12-11 15:54:00
10:54 AM,33.1,19.9,59,30.15,10.0,SW,8.1,-,N/A,,Clear,220,2012-12-11 16:54:00
11:54 AM,35.1,19.9,54,30.13,10.0,SW,9.2,-,N/A,,Clear,230,2012-12-11 17:54:00
12:54 PM,36.0,19.9,52,30.12,10.0,SW,9.2,-,N/A,,Clear,230,2012-12-11 18:54:00
1:54 PM,37.9,19.9,48,30.11,10.0,SW,6.9,-,N/A,,Clear,220,2012-12-11 19:54:00
2:54 PM,39.9,19.0,43,30.11,10.0,WSW,6.9,-,N/A,,Clear,240,2012-12-11 20:54:00
3:54 PM,39.0,21.0,49,30.12,10.0,SSW,4.6,-,N/A,,Clear,210,2012-12-11 21:54:00
4:54 PM,34.0,25.0,70,30.13,10.0,South,5.8,-,N/A,,Clear,180,2012-12-11 22:54:00
5:54 PM,30.9,24.1,76,30.14,10.0,Calm,Calm,-,N/A,,Clear,0,2012-12-11 23:54:00
6:54 PM,28.9,24.1,82,30.16,10.0,Calm,Calm,-,N/A,,Clear,0,2012-12-12 00:54:00
7:54 PM,30.0,24.1,79,30.18,10.0,Calm,Calm,-,N/A,,Clear,0,2012-12-12 01:54:00
8:54 PM,28.9,25.0,85,30.19,10.0,Calm,Calm,-,N/A,,Clear,0,2012-12-12 02:54:00
9:54 PM,25.0,21.0,85,30.20,10.0,Calm,Calm,-,N/A,,Clear,0,2012-12-12 03:54:00
10:54 PM,27.0,21.9,81,30.22,10.0,Calm,Calm,-,N/A,,Clear,0,2012-12-12 04:54:00
11:54 PM,26.1,24.1,92,30.23,10.0,Calm,Calm,-,N/A,,Clear,0,2012-12-12 05:54:00